O3B FM9 (40351 NORAD) Tracking and Keplerian Element Data

This shows tracking and keplerian element data for the satellite.

Feedback or suggestion? Click here.




ElementValue
Catalog40351
NameO3B FM9
Epoch Orbit7907
Epoch Day106.65606732
Epoch Year2019
RAAN13.5965
Inclination0.0522
Eccentricity0.0002557
Argument of Perigee12.0581
Mean Anonmoly334.3569
Mean Motion5.00114564
Decay Rate-2.6E-07
L11 40351U 14083D 19106.65606732 -.00000026 00000-0 00000-0 0 9990
L22 40351 0.0522 13.5965 0002557 12.0581 334.3569 5.00114564 79071

Live tracking and technical data element details for O3B FM9 (NORAD 40351). O3B FM9 can be tracked NOW for your location showing map with azimuth and elevation plus other details from your city location.

Track the satellite on the map from your city or location and see movement details for azimuth, elevation, latitude, longitude, range, height, and movement on the map or in text.







IsCatalogInMostPopularTable: catalog: 40351, numindb: 213
Update: records affected: 1



GetName: 40351 O3B FM9

Hit Count: updated at: Sat, 20 Apr 2019 00:39:15 GMT